Location: Unspecified
(0.0000°N, 0.0000°E)
Time: 11:47:04
(UTC+00:00)

Explorer 11/Cluster Stage 4 - Pass Details

Date: 05 October 2020
Orbit: 467 x 1258 km, 28.8° (Epoch: 28 October)

Event Time Altitude Azimuth Distance (km) Brightness Sun altitude
Rises 07:02:11 0° 283° (WNW) 4,024 9.6 18.4°
Reaches altitude 10° 07:05:08 10° 276° (W) 3,134 9.1 19.1°
Maximum altitude 07:12:32 40° 209° (SSW) 1,765 8.4 21.0°
Drops below altitude 10° 07:20:05 10° 142° (SE) 3,191 10.4 22.8°
Sets 07:23:08 0° 135° (SE) 4,103 11.0 23.6°
